| time (UTC) | temp F | wind direction | speed knots | gust knots | rain 1hr in | rain 24hr in | rain mn in | humidity % | barometer mb |
| 20260906225102 | 78 | 319 | 3.5 | 7.8 | 0.00 | 0.00 | 0.00 | 55 | 1008.3 |
| 20260906224606 | 79 | 355 | 3.5 | 7.8 | 0.00 | 0.00 | 0.00 | 55 | 1008.3 |
| 20260906224101 | 80 | 9 | 3.5 | 7.8 | 0.00 | 0.00 | 0.00 | 54 | 1008.3 |
| 20260906223559 | 80 | 355 | 2.6 | 7.8 | 0.00 | 0.00 | 0.00 | 54 | 1008.4 |
| 20260906223058 | 80 | 355 | 2.6 | 6.1 | 0.00 | 0.00 | 0.00 | 55 | 1008.4 |
| 20260906222557 | 80 | 355 | 3.5 | 6.1 | 0.00 | 0.00 | 0.00 | 55 | 1008.3 |
| 20260906222055 | 79 | 335 | 3.5 | 6.1 | 0.00 | 0.00 | 0.00 | 56 | 1008.3 |
| 20260906221554 | 79 | 316 | 3.5 | 7.0 | 0.00 | 0.00 | 0.00 | 56 | 1008.3 |
| 20260906221055 | 79 | 323 | 3.5 | 7.8 | 0.00 | 0.00 | 0.00 | 56 | 1008.3 |
| 20260906220555 | 78 | 310 | 3.5 | 9.6 | 0.00 | 0.00 | 0.00 | 56 | 1008.3 |
| 20260906220052 | 78 | 307 | 3.5 | 9.6 | 0.00 | 0.00 | 0.00 | 56 | 1008.3 |
| 20260906215548 | 78 | 317 | 4.3 | 7.0 | 0.00 | 0.00 | 0.00 | 56 | 1008.4 |
| 20260906215050 | 78 | 311 | 4.3 | 9.6 | 0.00 | 0.00 | 0.00 | 57 | 1008.4 |
| 20260906214547 | 78 | 338 | 3.5 | 9.6 | 0.00 | 0.00 | 0.00 | 57 | 1008.4 |
| 20260906214044 | 78 | 312 | 3.5 | 7.8 | 0.00 | 0.00 | 0.00 | 57 | 1008.3 |
| 20260906213542 | 78 | 318 | 4.3 | 8.7 | 0.00 | 0.00 | 0.00 | 57 | 1008.3 |
| 20260906213038 | 78 | 332 | 4.3 | 9.6 | 0.00 | 0.00 | 0.00 | 57 | 1008.3 |
| 20260906212536 | 79 | 316 | 4.3 | 9.6 | 0.00 | 0.00 | 0.00 | 57 | 1008.1 |
| 20260906212037 | 79 | 303 | 4.3 | 8.7 | 0.00 | 0.00 | 0.00 | 56 | 1008.1 |
| 20260906211534 | 80 | 317 | 4.3 | 8.7 | 0.00 | 0.00 | 0.00 | 54 | 1008.2 |
| 20260906211035 | 81 | 350 | 4.3 | 7.8 | 0.00 | 0.00 | 0.00 | 51 | 1008.2 |
| 20260906210536 | 83 | 309 | 3.5 | 7.0 | 0.00 | 0.00 | 0.00 | 46 | 1008.2 |
| 20260906205537 | 85 | 327 | 2.6 | 6.1 | 0.00 | 0.00 | 0.00 | 44 | 1008.3 |
| 20260906205032 | 85 | 10 | 1.7 | 5.2 | 0.00 | 0.00 | 0.00 | 43 | 1008.3 |
| 20260906204529 | 85 | 269 | 1.7 | 3.5 | 0.00 | 0.00 | 0.00 | 44 | 1008.3 |
| 20260906204025 | 84 | 0 | 1.7 | 5.2 | 0.00 | 0.00 | 0.00 | 44 | 1008.6 |
| 20260906203024 | 84 | 34 | 1.7 | 4.3 | 0.00 | 0.00 | 0.00 | 46 | 1008.6 |
| 20260906202522 | 84 | 315 | 2.6 | 4.3 | 0.00 | 0.00 | 0.00 | 45 | 1008.7 |
| 20260906202019 | 84 | 315 | 2.6 | 4.3 | 0.00 | 0.00 | 0.00 | 47 | 1008.7 |
| 20260906200511 | 83 | 338 | 1.7 | 5.2 | 0.00 | 0.00 | 0.00 | 48 | 1008.7 |
| 20260906200009 | 83 | 336 | 2.6 | 5.2 | 0.00 | 0.00 | 0.00 | 49 | 1008.7 |
| 20260906195509 | 83 | 12 | 2.6 | 6.1 | 0.00 | 0.00 | 0.00 | 50 | 1008.9 |
| 20260906195001 | 82 | 22 | 2.6 | 6.1 | 0.00 | 0.00 | 0.00 | 51 | 1008.9 |
| 20260906194501 | 81 | 313 | 2.6 | 7.0 | 0.00 | 0.00 | 0.00 | 52 | 1008.9 |
| 20260906194000 | 82 | 313 | 3.5 | 7.0 | 0.00 | 0.00 | 0.00 | 52 | 1009.0 |
| 20260906193501 | 82 | 330 | 3.5 | 6.1 | 0.00 | 0.00 | 0.00 | 51 | 1009.0 |
| 20260906192955 | 82 | 329 | 2.6 | 5.2 | 0.00 | 0.00 | 0.00 | 49 | 1009.0 |
| 20260906192452 | 82 | 335 | 1.7 | 5.2 | 0.00 | 0.00 | 0.00 | 49 | 1009.3 |
| 20260906191452 | 82 | 319 | 2.6 | 6.1 | 0.00 | 0.00 | 0.00 | 49 | 1009.3 |
| 20260906190950 | 82 | 323 | 2.6 | 6.1 | 0.00 | 0.00 | 0.00 | 48 | 1009.3 |
| 20260906190449 | 83 | 321 | 1.7 | 6.1 | 0.00 | 0.00 | 0.00 | 48 | 1009.3 |
| 20260906185947 | 83 | 49 | 1.7 | 5.2 | 0.00 | 0.00 | 0.00 | 45 | 1009.3 |
| 20260906185444 | 83 | 122 | 1.7 | 4.3 | 0.00 | 0.00 | 0.00 | 44 | 1009.3 |
| 20260906184442 | 84 | 27 | 1.7 | 4.3 | 0.00 | 0.00 | 0.00 | 44 | 1009.3 |
| 20260906183938 | 83 | 27 | 0.9 | 3.5 | 0.00 | 0.00 | 0.00 | 45 | 1009.4 |
| 20260906183439 | 82 | 24 | 0.9 | 3.5 | 0.00 | 0.00 | 0.00 | 44 | 1009.4 |
| 20260906182942 | 82 | 0 | 1.7 | 3.5 | 0.00 | 0.00 | 0.00 | 44 | 1009.4 |
| 20260906182438 | 82 | 0 | 1.7 | 3.5 | 0.00 | 0.00 | 0.00 | 45 | 1009.5 |
| 20260906181429 | 82 | 355 | 0.9 | 3.5 | 0.00 | 0.00 | 0.00 | 44 | 1009.5 |
| 20260906180929 | 83 | 338 | 0.9 | 2.6 | 0.00 | 0.00 | 0.00 | 44 | 1009.4 |
| 20260906180421 | 82 | 338 | 1.7 | 2.6 | 0.00 | 0.00 | 0.00 | 46 | 1009.4 |
| 20260906175918 | 81 | 336 | 1.7 | 3.5 | 0.00 | 0.00 | 0.00 | 49 | 1009.4 |
| 20260906175419 | 80 | 336 | 1.7 | 3.5 | 0.00 | 0.00 | 0.00 | 49 | 1009.2 |
| 20260906174919 | 79 | 336 | 1.7 | 4.3 | 0.00 | 0.00 | 0.00 | 52 | 1009.2 |
| 20260906174415 | 78 | 336 | 2.6 | 5.2 | 0.00 | 0.00 | 0.00 | 51 | 1009.2 |
| 20260906173917 | 79 | 315 | 1.7 | 5.2 | 0.00 | 0.00 | 0.00 | 52 | 1009.2 |
| 20260906173415 | 80 | 350 | 1.7 | 4.3 | 0.00 | 0.00 | 0.00 | 51 | 1009.2 |
| 20260906172914 | 80 | 355 | 0.9 | 2.6 | 0.00 | 0.00 | 0.00 | 53 | 1009.2 |
| 20260906172414 | 79 | 355 | 1.7 | 3.5 | 0.00 | 0.00 | 0.00 | 53 | 1008.9 |
| 20260906171913 | 78 | 355 | 1.7 | 3.5 | 0.00 | 0.00 | 0.00 | 52 | 1008.9 |
| 20260906171411 | 78 | 5 | 1.7 | 3.5 | 0.00 | 0.00 | 0.00 | 51 | 1008.9 |
| 20260906170909 | 77 | 5 | 1.7 | 3.5 | 0.00 | 0.00 | 0.00 | 53 | 1008.7 |
| 20260906170408 | 76 | 5 | 0.9 | 3.5 | 0.00 | 0.00 | 0.00 | 56 | 1008.7 |
| 20260906165909 | 75 | 5 | 0.9 | 2.6 | 0.00 | 0.00 | 0.00 | 55 | 1008.7 |
| 20260906165408 | 74 | 355 | 1.7 | 2.6 | 0.00 | 0.00 | 0.00 | 59 | 1008.6 |
| 20260906164402 | 74 | 355 | 1.7 | 4.3 | 0.00 | 0.00 | 0.00 | 62 | 1008.6 |
| 20260906163858 | 74 | 323 | 0.9 | 4.3 | 0.00 | 0.00 | 0.00 | 64 | 1008.6 |
| 20260906163358 | 72 | 323 | 0.9 | 4.3 | 0.00 | 0.00 | 0.00 | 65 | 1008.6 |
| 20260906162854 | 71 | 317 | 0.9 | 2.6 | 0.00 | 0.00 | 0.00 | 66 | 1008.6 |
| 20260906162359 | 71 | 306 | 0.9 | 2.6 | 0.00 | 0.00 | 0.00 | 67 | 1008.6 |
| 20260906161349 | 69 | 306 | 0.9 | 3.5 | 0.00 | 0.00 | 0.00 | 71 | 1008.7 |
| 20260906160846 | 68 | 306 | 0.9 | 3.5 | 0.00 | 0.00 | 0.00 | 71 | 1008.7 |
| 20260906155844 | 66 | 288 | 0.0 | 2.6 | 0.00 | 0.00 | 0.00 | 74 | 1008.6 |
| 20260906155342 | 67 | 322 | 0.0 | 0.0 | 0.00 | 0.00 | 0.00 | 75 | 1008.6 |
| 20260906154847 | 66 | 322 | 0.0 | 0.0 | 0.00 | 0.00 | 0.00 | 77 | 1008.6 |
| 20260906154342 | 65 | 322 | 0.0 | 0.0 | 0.00 | 0.00 | 0.00 | 79 | 1008.6 |
| 20260906153840 | 64 | 322 | 0.0 | 0.0 | 0.00 | 0.00 | 0.00 | 81 | 1008.6 |
| 20260906153341 | 63 | 322 | 0.0 | 0.0 | 0.00 | 0.00 | 0.00 | 80 | 1008.5 |
| 20260906152339 | 62 | 322 | 0.0 | 0.0 | 0.00 | 0.00 | 0.00 | 82 | 1008.5 |
| 20260906151835 | 61 | 322 | 0.0 | 0.0 | 0.00 | 0.00 | 0.00 | 82 | 1008.5 |
| 20260906151329 | 60 | 322 | 0.0 | 0.0 | 0.00 | 0.00 | 0.00 | 83 | 1008.5 |
| 20260906150331 | 59 | 322 | 0.0 | 0.0 | 0.00 | 0.00 | 0.00 | 86 | 1008.5 |
| 20260906145826 | 58 | 322 | 0.0 | 0.0 | 0.00 | 0.00 | 0.00 | 89 | 1008.4 |
| 20260906145321 | 57 | 322 | 0.0 | 0.0 | 0.00 | 0.00 | 0.00 | 90 | 1008.4 |
| 20260906144818 | 56 | 322 | 0.0 | 0.0 | 0.00 | 0.00 | 0.00 | 91 | 1008.4 |
| 20260906144319 | 56 | 322 | 0.0 | 0.0 | 0.00 | 0.00 | 0.00 | 92 | 1007.9 |
| 20260906143811 | 55 | 322 | 0.0 | 0.0 | 0.00 | 0.00 | 0.00 | 93 | 1007.8 |
| 20260906143307 | 53 | 322 | 0.0 | 0.0 | 0.00 | 0.00 | 0.00 | 93 | 1007.8 |
| 20260906142806 | 53 | 322 | 0.0 | 0.0 | 0.00 | 0.00 | 0.00 | 93 | 1007.9 |
| 20260906142307 | 52 | 322 | 0.0 | 0.0 | 0.00 | 0.00 | 0.00 | 92 | 1007.9 |
| 20260906141804 | 52 | 322 | 0.0 | 0.0 | 0.00 | 0.00 | 0.00 | 92 | 1007.9 |
| 20260906141300 | 52 | 322 | 0.0 | 0.0 | 0.00 | 0.00 | 0.00 | 92 | 1007.8 |
| 20260906140256 | 51 | 322 | 0.0 | 0.0 | 0.00 | 0.00 | 0.00 | 92 | 1007.8 |
| 20260906135757 | 51 | 322 | 0.0 | 0.0 | 0.00 | 0.00 | 0.00 | 92 | 1007.9 |
| 20260906135252 | 51 | 322 | 0.0 | 0.0 | 0.00 | 0.00 | 0.00 | 92 | 1007.9 |
| 20260906133742 | 51 | 322 | 0.0 | 0.0 | 0.00 | 0.00 | 0.00 | 92 | 1007.9 |
| 20260906133240 | 51 | 322 | 0.0 | 0.0 | 0.00 | 0.00 | 0.00 | 92 | 1007.9 |
| 20260906132743 | 51 | 322 | 0.0 | 0.0 | 0.00 | 0.00 | 0.00 | 92 | 1007.8 |
| 20260906132243 | 51 | 322 | 0.0 | 0.0 | 0.00 | 0.00 | 0.00 | 92 | 1007.8 |
| 20260906131735 | 51 | 322 | 0.0 | 0.0 | 0.00 | 0.00 | 0.00 | 92 | 1007.8 |
| 20260906131235 | 51 | 322 | 0.0 | 0.0 | 0.00 | 0.00 | 0.00 | 92 | 1007.8 |
| 20260906130231 | 51 | 322 | 0.0 | 0.0 | 0.00 | 0.00 | 0.00 | 92 | 1007.8 |
| 20260906125728 | 51 | 322 | 0.0 | 0.0 | 0.00 | 0.00 | 0.00 | 92 | 1007.9 |
| 20260906125226 | 52 | 322 | 0.0 | 0.0 | 0.00 | 0.00 | 0.00 | 92 | 1007.9 |
| 20260906124723 | 52 | 322 | 0.0 | 0.0 | 0.00 | 0.00 | 0.00 | 92 | 1007.9 |
| 20260906124219 | 52 | 322 | 0.0 | 0.0 | 0.00 | 0.00 | 0.00 | 92 | 1007.8 |
| 20260906123719 | 52 | 322 | 0.0 | 0.0 | 0.00 | 0.00 | 0.00 | 92 | 1007.8 |
| 20260906123217 | 52 | 322 | 0.0 | 0.0 | 0.00 | 0.00 | 0.00 | 92 | 1007.8 |
| 20260906122714 | 52 | 322 | 0.0 | 0.0 | 0.00 | 0.00 | 0.00 | 92 | 1007.8 |
| 20260906122209 | 52 | 322 | 0.0 | 0.0 | 0.00 | 0.00 | 0.00 | 92 | 1007.8 |
| 20260906121706 | 52 | 322 | 0.0 | 0.0 | 0.00 | 0.00 | 0.00 | 92 | 1007.8 |
| 20260906121207 | 52 | 322 | 0.0 | 0.0 | 0.00 | 0.00 | 0.00 | 92 | 1007.8 |
| 20260906120708 | 52 | 322 | 0.0 | 0.0 | 0.00 | 0.00 | 0.00 | 92 | 1007.8 |
| 20260906120209 | 52 | 322 | 0.0 | 0.0 | 0.00 | 0.00 | 0.00 | 92 | 1007.8 |
| 20260906115204 | 52 | 322 | 0.0 | 0.0 | 0.00 | 0.00 | 0.00 | 91 | 1008.0 |
| 20260906114700 | 52 | 322 | 0.0 | 0.0 | 0.00 | 0.00 | 0.00 | 92 | 1008.0 |
| 20260906114159 | 52 | 322 | 0.0 | 0.0 | 0.00 | 0.00 | 0.00 | 91 | 1008.0 |
| 20260906113654 | 52 | 322 | 0.0 | 0.0 | 0.00 | 0.00 | 0.00 | 91 | 1008.0 |
| 20260906113155 | 52 | 322 | 0.0 | 0.0 | 0.00 | 0.00 | 0.00 | 91 | 1008.0 |
| 20260906112651 | 52 | 322 | 0.0 | 0.0 | 0.00 | 0.00 | 0.00 | 91 | 1008.0 |
| 20260906112146 | 52 | 322 | 0.0 | 0.0 | 0.00 | 0.00 | 0.00 | 91 | 1008.0 |
| 20260906111143 | 52 | 322 | 0.0 | 0.0 | 0.00 | 0.00 | 0.00 | 91 | 1007.9 |
| 20260906110640 | 52 | 322 | 0.0 | 0.0 | 0.00 | 0.00 | 0.00 | 91 | 1007.9 |
| 20260906110141 | 52 | 322 | 0.0 | 0.0 | 0.00 | 0.00 | 0.00 | 91 | 1007.9 |
| 20260906105636 | 52 | 322 | 0.0 | 0.0 | 0.00 | 0.00 | 0.00 | 91 | 1007.9 |
| 20260906105128 | 52 | 322 | 0.0 | 0.0 | 0.00 | 0.00 | 0.00 | 91 | 1007.9 |
| 20260906104622 | 52 | 322 | 0.0 | 0.0 | 0.00 | 0.00 | 0.00 | 90 | 1007.9 |
| 20260906104120 | 52 | 322 | 0.0 | 0.0 | 0.00 | 0.00 | 0.00 | 90 | 1008.0 |
| 20260906103615 | 52 | 322 | 0.0 | 0.0 | 0.00 | 0.00 | 0.00 | 90 | 1008.0 |
| 20260906103113 | 53 | 322 | 0.0 | 0.0 | 0.00 | 0.00 | 0.00 | 90 | 1008.0 |
| 20260906102610 | 53 | 322 | 0.0 | 0.0 | 0.00 | 0.00 | 0.00 | 90 | 1008.0 |
| 20260906102106 | 53 | 322 | 0.0 | 0.0 | 0.00 | 0.00 | 0.00 | 90 | 1008.0 |
| 20260906101103 | 53 | 322 | 0.0 | 0.0 | 0.00 | 0.00 | 0.00 | 90 | 1008.0 |
| 20260906100559 | 53 | 322 | 0.0 | 0.0 | 0.00 | 0.00 | 0.00 | 90 | 1008.0 |
| 20260906100056 | 53 | 322 | 0.0 | 0.0 | 0.00 | 0.00 | 0.00 | 90 | 1008.0 |
| 20260906095557 | 53 | 322 | 0.0 | 0.0 | 0.00 | 0.00 | 0.00 | 90 | 1008.2 |
| 20260906095057 | 53 | 322 | 0.0 | 0.0 | 0.00 | 0.00 | 0.00 | 90 | 1008.2 |
| 20260906094552 | 53 | 322 | 0.0 | 0.0 | 0.00 | 0.00 | 0.00 | 89 | 1008.2 |
| 20260906094054 | 53 | 322 | 0.0 | 0.0 | 0.00 | 0.00 | 0.00 | 89 | 1008.2 |
| 20260906093551 | 53 | 322 | 0.0 | 0.0 | 0.00 | 0.00 | 0.00 | 89 | 1008.2 |
| 20260906092550 | 53 | 322 | 0.0 | 0.0 | 0.00 | 0.00 | 0.00 | 89 | 1008.3 |
| 20260906092053 | 53 | 322 | 0.0 | 0.0 | 0.00 | 0.00 | 0.00 | 88 | 1008.3 |
| 20260906091548 | 54 | 322 | 0.0 | 0.0 | 0.00 | 0.00 | 0.00 | 88 | 1008.3 |
| 20260906091044 | 54 | 322 | 0.0 | 0.0 | 0.00 | 0.00 | 0.00 | 88 | 1008.4 |
| 20260906090540 | 54 | 322 | 0.0 | 0.0 | 0.00 | 0.00 | 0.00 | 88 | 1008.4 |
| 20260906090036 | 54 | 322 | 0.0 | 0.0 | 0.00 | 0.00 | 0.00 | 88 | 1008.4 |
| 20260906085535 | 54 | 322 | 0.0 | 0.0 | 0.00 | 0.00 | 0.00 | 88 | 1008.4 |
| 20260906085030 | 54 | 322 | 0.0 | 0.0 | 0.00 | 0.00 | 0.00 | 88 | 1008.4 |
| 20260906084026 | 54 | 322 | 0.0 | 0.0 | 0.00 | 0.00 | 0.00 | 87 | 1008.5 |
| 20260906083023 | 54 | 322 | 0.0 | 0.0 | 0.00 | 0.00 | 0.00 | 86 | 1008.5 |
| 20260906082514 | 54 | 322 | 0.0 | 0.0 | 0.00 | 0.00 | 0.00 | 86 | 1008.4 |
| 20260906082015 | 54 | 322 | 0.0 | 0.0 | 0.00 | 0.00 | 0.00 | 86 | 1008.4 |
| 20260906081509 | 54 | 322 | 0.0 | 0.0 | 0.00 | 0.00 | 0.00 | 85 | 1008.4 |
| 20260906081006 | 55 | 322 | 0.0 | 0.0 | 0.00 | 0.00 | 0.00 | 85 | 1008.5 |
| 20260906080509 | 55 | 322 | 0.0 | 0.0 | 0.00 | 0.00 | 0.00 | 85 | 1008.5 |
| 20260906075502 | 55 | 322 | 0.0 | 0.0 | 0.00 | 0.00 | 0.00 | 84 | 1008.7 |
| 20260906074958 | 55 | 322 | 0.0 | 0.0 | 0.00 | 0.00 | 0.00 | 84 | 1008.7 |
| 20260906074455 | 55 | 322 | 0.0 | 0.0 | 0.00 | 0.00 | 0.00 | 84 | 1008.7 |
| 20260906073955 | 55 | 322 | 0.0 | 0.0 | 0.00 | 0.00 | 0.00 | 83 | 1008.6 |
| 20260906073455 | 55 | 322 | 0.0 | 0.0 | 0.00 | 0.00 | 0.00 | 83 | 1008.6 |
| 20260906072956 | 55 | 322 | 0.0 | 0.0 | 0.00 | 0.00 | 0.00 | 82 | 1008.6 |
| 20260906071947 | 56 | 322 | 0.0 | 0.0 | 0.00 | 0.00 | 0.00 | 82 | 1008.7 |
| 20260906071446 | 56 | 322 | 0.0 | 0.0 | 0.00 | 0.00 | 0.00 | 81 | 1008.9 |
| 20260906070940 | 56 | 322 | 0.0 | 0.0 | 0.00 | 0.00 | 0.00 | 81 | 1008.7 |
| 20260906070434 | 56 | 322 | 0.0 | 0.0 | 0.00 | 0.00 | 0.00 | 82 | 1008.7 |
| 20260906065930 | 56 | 322 | 0.0 | 0.0 | 0.00 | 0.00 | 0.00 | 82 | 1008.7 |
| 20260906065429 | 56 | 322 | 0.0 | 0.0 | 0.00 | 0.00 | 0.00 | 82 | 1008.5 |
| 20260906064929 | 56 | 322 | 0.0 | 0.0 | 0.00 | 0.00 | 0.00 | 82 | 1008.5 |
| 20260906064424 | 57 | 322 | 0.0 | 0.0 | 0.00 | 0.00 | 0.00 | 82 | 1008.5 |
| 20260906063930 | 57 | 322 | 0.0 | 0.0 | 0.00 | 0.00 | 0.00 | 82 | 1008.6 |
| 20260906063422 | 57 | 322 | 0.0 | 0.0 | 0.00 | 0.00 | 0.00 | 82 | 1008.6 |
| 20260906062921 | 57 | 322 | 0.0 | 0.0 | 0.00 | 0.00 | 0.00 | 81 | 1008.6 |
| 20260906062419 | 57 | 322 | 0.0 | 0.0 | 0.00 | 0.00 | 0.00 | 81 | 1008.6 |
| 20260906061920 | 57 | 322 | 0.0 | 1.7 | 0.00 | 0.00 | 0.00 | 81 | 1008.6 |
| 20260906060918 | 57 | 322 | 0.0 | 0.9 | 0.00 | 0.00 | 0.00 | 81 | 1008.7 |
| 20260906060418 | 57 | 322 | 0.0 | 0.9 | 0.00 | 0.00 | 0.00 | 81 | 1008.7 |
| 20260906055917 | 58 | 322 | 0.0 | 1.7 | 0.00 | 0.00 | 0.00 | 81 | 1008.7 |
| 20260906055411 | 58 | 322 | 0.0 | 1.7 | 0.00 | 0.00 | 0.00 | 81 | 1009.0 |
| 20260906054906 | 58 | 322 | 0.0 | 0.0 | 0.00 | 0.00 | 0.00 | 82 | 1009.0 |
| 20260906054401 | 58 | 322 | 0.0 | 0.0 | 0.00 | 0.00 | 0.00 | 82 | 1009.0 |
| 20260906053356 | 59 | 322 | 0.0 | 1.7 | 0.00 | 0.00 | 0.00 | 83 | 1009.0 |
| 20260906052852 | 59 | 322 | 0.0 | 0.9 | 0.00 | 0.00 | 0.00 | 84 | 1009.0 |
| 20260906052352 | 59 | 322 | 0.0 | 1.7 | 0.00 | 0.00 | 0.00 | 84 | 1009.0 |
| 20260906051849 | 59 | 322 | 0.9 | 2.6 | 0.00 | 0.00 | 0.00 | 84 | 1009.0 |
| 20260906051349 | 59 | 322 | 0.9 | 2.6 | 0.00 | 0.00 | 0.00 | 83 | 1009.2 |
| 20260906050846 | 60 | 322 | 0.0 | 1.7 | 0.00 | 0.00 | 0.00 | 83 | 1009.2 |
| 20260906050343 | 60 | 322 | 0.0 | 0.0 | 0.00 | 0.00 | 0.00 | 82 | 1009.2 |
| 20260906045839 | 60 | 322 | 0.0 | 1.7 | 0.00 | 0.00 | 0.00 | 83 | 1009.0 |
| 20260906045338 | 60 | 322 | 0.0 | 1.7 | 0.00 | 0.00 | 0.00 | 82 | 1009.0 |
| 20260906044831 | 61 | 322 | 0.0 | 1.7 | 0.00 | 0.00 | 0.00 | 82 | 1009.0 |
| 20260906044330 | 61 | 322 | 0.9 | 2.6 | 0.00 | 0.00 | 0.00 | 83 | 1009.0 |
| 20260906043828 | 61 | 322 | 0.0 | 2.6 | 0.00 | 0.00 | 0.00 | 84 | 1009.0 |
| 20260906043325 | 62 | 322 | 0.0 | 0.9 | 0.00 | 0.00 | 0.00 | 83 | 1009.0 |
| 20260906042822 | 62 | 322 | 0.0 | 0.0 | 0.00 | 0.00 | 0.00 | 84 | 1008.9 |
| 20260906042319 | 62 | 322 | 0.0 | 0.0 | 0.00 | 0.00 | 0.00 | 84 | 1008.9 |
| 20260906041819 | 62 | 322 | 0.0 | 0.9 | 0.00 | 0.00 | 0.00 | 84 | 1008.9 |
| 20260906041317 | 62 | 322 | 0.9 | 3.5 | 0.00 | 0.00 | 0.00 | 84 | 1008.6 |
| 20260906040815 | 62 | 322 | 0.9 | 3.5 | 0.00 | 0.00 | 0.00 | 84 | 1008.6 |
| 20260906040310 | 62 | 322 | 0.9 | 3.5 | 0.00 | 0.00 | 0.00 | 84 | 1008.6 |
| 20260906035809 | 62 | 322 | 0.9 | 3.5 | 0.00 | 0.00 | 0.00 | 84 | 1008.4 |
| 20260906034805 | 62 | 323 | 1.7 | 3.5 | 0.00 | 0.00 | 0.00 | 85 | 1008.4 |
| 20260906034300 | 62 | 323 | 0.9 | 3.5 | 0.00 | 0.00 | 0.00 | 85 | 1008.2 |
| 20260906033257 | 63 | 324 | 0.0 | 2.6 | 0.00 | 0.00 | 0.00 | 84 | 1008.2 |
| 20260906032259 | 64 | 325 | 1.7 | 3.5 | 0.00 | 0.00 | 0.00 | 83 | 1008.0 |
| 20260906031754 | 64 | 325 | 1.7 | 3.5 | 0.00 | 0.00 | 0.00 | 83 | 1008.0 |
| 20260906031251 | 64 | 325 | 1.7 | 3.5 | 0.00 | 0.00 | 0.00 | 82 | 1008.0 |
| 20260906030750 | 65 | 325 | 1.7 | 3.5 | 0.00 | 0.00 | 0.00 | 82 | 1008.0 |
| 20260906030249 | 65 | 324 | 1.7 | 3.5 | 0.00 | 0.00 | 0.00 | 81 | 1008.0 |
| 20260906025748 | 65 | 320 | 1.7 | 3.5 | 0.00 | 0.00 | 0.00 | 81 | 1007.9 |
| 20260906025245 | 65 | 320 | 1.7 | 3.5 | 0.00 | 0.00 | 0.00 | 80 | 1007.9 |
| 20260906024745 | 65 | 320 | 1.7 | 3.5 | 0.00 | 0.00 | 0.00 | 80 | 1007.9 |
| 20260906024244 | 66 | 320 | 0.9 | 3.5 | 0.00 | 0.00 | 0.00 | 79 | 1007.8 |
| 20260906022735 | 67 | 320 | 2.6 | 5.2 | 0.00 | 0.00 | 0.00 | 79 | 1007.8 |
| 20260906021731 | 68 | 295 | 2.6 | 5.2 | 0.00 | 0.00 | 0.00 | 75 | 1007.8 |
| 20260906021228 | 69 | 302 | 2.6 | 6.1 | 0.00 | 0.00 | 0.00 | 74 | 1007.8 |
| 20260906020726 | 69 | 310 | 2.6 | 6.1 | 0.00 | 0.00 | 0.00 | 72 | 1007.8 |
| 20260906015723 | 71 | 331 | 1.7 | 3.5 | 0.00 | 0.00 | 0.00 | 69 | 1007.7 |
| 20260906015217 | 71 | 331 | 0.9 | 3.5 | 0.00 | 0.00 | 0.00 | 66 | 1007.8 |
| 20260906014715 | 72 | 331 | 0.9 | 3.5 | 0.00 | 0.00 | 0.00 | 65 | 1007.8 |
| 20260906014219 | 72 | 331 | 1.7 | 4.3 | 0.00 | 0.00 | 0.00 | 63 | 1007.6 |
| 20260906013719 | 73 | 331 | 1.7 | 4.3 | 0.00 | 0.00 | 0.00 | 62 | 1007.6 |
| 20260906013211 | 74 | 333 | 1.7 | 4.3 | 0.00 | 0.00 | 0.00 | 60 | 1007.6 |
| 20260906012707 | 74 | 337 | 1.7 | 3.5 | 0.00 | 0.00 | 0.00 | 59 | 1007.7 |
| 20260906012208 | 75 | 337 | 1.7 | 3.5 | 0.00 | 0.00 | 0.00 | 58 | 1007.7 |
| 20260906011204 | 77 | 338 | 1.7 | 4.3 | 0.00 | 0.00 | 0.00 | 57 | 1007.8 |
| 20260906010704 | 77 | 338 | 1.7 | 4.3 | 0.00 | 0.00 | 0.00 | 56 | 1007.8 |
| 20260906005703 | 78 | 331 | 1.7 | 4.3 | 0.00 | 0.00 | 0.00 | 57 | 1007.7 |
| 20260906005201 | 77 | 317 | 1.7 | 4.3 | 0.00 | 0.00 | 0.00 | 58 | 1007.7 |
| 20260906004656 | 77 | 305 | 2.6 | 7.0 | 0.00 | 0.00 | 0.00 | 60 | 1007.7 |
| 20260906004155 | 77 | 348 | 3.5 | 7.0 | 0.00 | 0.00 | 0.00 | 60 | 1007.7 |
| 20260906003654 | 77 | 330 | 3.5 | 7.0 | 0.00 | 0.00 | 0.00 | 59 | 1007.7 |
| 20260906003150 | 78 | 319 | 2.6 | 6.1 | 0.00 | 0.00 | 0.00 | 58 | 1007.7 |
| 20260906002146 | 78 | 338 | 2.6 | 6.1 | 0.00 | 0.00 | 0.00 | 58 | 1007.7 |
| 20260906001649 | 78 | 326 | 2.6 | 6.1 | 0.00 | 0.00 | 0.00 | 58 | 1007.7 |
| 20260906001145 | 78 | 341 | 2.6 | 6.1 | 0.00 | 0.00 | 0.00 | 58 | 1007.7 |
| 20260906000644 | 78 | 334 | 3.5 | 6.1 | 0.00 | 0.00 | 0.00 | 58 | 1007.7 |
| 20260906000142 | 79 | 323 | 2.6 | 6.1 | 0.00 | 0.00 | 0.00 | 57 | 1007.7 |
| 20260905235142 | 79 | 342 | 3.5 | 7.0 | 0.00 | 0.00 | 0.00 | 56 | 1007.7 |
| 20260905234641 | 79 | 328 | 2.6 | 7.0 | 0.00 | 0.00 | 0.00 | 56 | 1007.7 |
| 20260905234142 | 79 | 320 | 3.5 | 6.1 | 0.00 | 0.00 | 0.00 | 55 | 1007.6 |
| 20260905233640 | 79 | 303 | 3.5 | 7.0 | 0.00 | 0.00 | 0.00 | 55 | 1007.6 |
| 20260905233140 | 79 | 313 | 4.3 | 7.8 | 0.00 | 0.00 | 0.00 | 54 | 1007.6 |
| 20260905232637 | 79 | 315 | 3.5 | 7.8 | 0.00 | 0.00 | 0.00 | 54 | 1007.6 |
| 20260905232137 | 80 | 311 | 2.6 | 5.2 | 0.00 | 0.00 | 0.00 | 53 | 1007.7 |
| 20260905231634 | 80 | 323 | 3.5 | 7.8 | 0.00 | 0.00 | 0.00 | 54 | 1007.7 |
| 20260905231133 | 80 | 13 | 3.5 | 7.8 | 0.00 | 0.00 | 0.00 | 54 | 1007.9 |
| 20260905230631 | 81 | 315 | 3.5 | 7.0 | 0.00 | 0.00 | 0.00 | 54 | 1007.9 |
| 20260905230130 | 81 | 339 | 2.6 | 5.2 | 0.00 | 0.00 | 0.00 | 55 | 1007.9 |
| 20260905225627 | 81 | 329 | 2.6 | 6.1 | 0.00 | 0.00 | 0.00 | 55 | 1008.1 |